| time (UTC) | temp F | wind direction | speed knots | gust knots | rain 1hr in | rain 24hr in | rain mn in | humidity % | barometer mb |
| 20260901052949 | 84 | 229 | 0.0 | 0.9 | 0.00 | 0.00 | 0.00 | 46 | 1017.4 |
| 20260901052446 | 84 | 169 | 0.0 | 0.9 | 0.00 | 0.00 | 0.00 | 47 | 1017.4 |
| 20260901051944 | 84 | 165 | 0.0 | 0.9 | 0.00 | 0.00 | 0.00 | 47 | 1017.3 |
| 20260901051439 | 84 | 165 | 0.0 | 0.9 | 0.00 | 0.00 | 0.00 | 46 | 1017.2 |
| 20260901050933 | 84 | 97 | 0.0 | 0.9 | 0.00 | 0.00 | 0.00 | 46 | 1017.3 |
| 20260901050429 | 85 | 70 | 0.0 | 0.0 | 0.00 | 0.00 | 0.00 | 46 | 1017.3 |
| 20260901045928 | 85 | 138 | 0.0 | 0.0 | 0.00 | 0.00 | 0.00 | 46 | 1017.2 |
| 20260901045423 | 85 | 173 | 0.0 | 0.0 | 0.00 | 0.00 | 0.00 | 47 | 1017.2 |
| 20260901044918 | 85 | 173 | 0.0 | 0.0 | 0.00 | 0.00 | 0.00 | 45 | 1017.3 |
| 20260901044415 | 85 | 117 | 0.0 | 0.0 | 0.00 | 0.00 | 0.00 | 45 | 1017.2 |
| 20260901043911 | 86 | 83 | 0.0 | 0.9 | 0.00 | 0.00 | 0.00 | 44 | 1017.2 |
| 20260901043407 | 86 | 268 | 0.9 | 0.9 | 0.00 | 0.00 | 0.00 | 44 | 1017.2 |
| 20260901042906 | 86 | 269 | 0.0 | 0.0 | 0.00 | 0.00 | 0.00 | 45 | 1017.2 |
| 20260901042401 | 87 | 269 | 0.9 | 0.9 | 0.00 | 0.00 | 0.00 | 43 | 1017.1 |
| 20260901041856 | 87 | 169 | 0.0 | 2.6 | 0.00 | 0.00 | 0.00 | 42 | 1017.0 |
| 20260901041351 | 87 | 14 | 0.0 | 0.9 | 0.00 | 0.00 | 0.00 | 42 | 1016.9 |
| 20260901040845 | 88 | 61 | 0.9 | 1.7 | 0.00 | 0.00 | 0.00 | 42 | 1017.1 |
| 20260901040344 | 88 | 211 | 0.0 | 0.9 | 0.00 | 0.00 | 0.00 | 42 | 1017.0 |
| 20260901035839 | 88 | 104 | 0.9 | 1.7 | 0.00 | 0.00 | 0.00 | 41 | 1017.0 |
| 20260901035337 | 88 | 64 | 0.0 | 1.7 | 0.00 | 0.00 | 0.00 | 41 | 1017.0 |
| 20260901034836 | 88 | 236 | 0.0 | 1.7 | 0.00 | 0.00 | 0.00 | 41 | 1017.2 |
| 20260901034332 | 88 | 177 | 1.7 | 1.7 | 0.00 | 0.00 | 0.00 | 41 | 1017.0 |
| 20260901033831 | 88 | 242 | 0.9 | 1.7 | 0.00 | 0.00 | 0.00 | 41 | 1016.9 |
| 20260901033330 | 89 | 230 | 0.9 | 1.7 | 0.00 | 0.00 | 0.00 | 40 | 1016.8 |
| 20260901032829 | 88 | 290 | 0.9 | 5.2 | 0.00 | 0.00 | 0.00 | 40 | 1017.0 |
| 20260901032329 | 88 | 215 | 0.0 | 2.6 | 0.00 | 0.00 | 0.00 | 41 | 1016.9 |
| 20260901031824 | 88 | 224 | 0.0 | 1.7 | 0.00 | 0.00 | 0.00 | 41 | 1016.9 |
| 20260901031320 | 89 | 283 | 0.9 | 2.6 | 0.00 | 0.00 | 0.00 | 40 | 1016.9 |
| 20260901030819 | 89 | 234 | 0.0 | 2.6 | 0.00 | 0.00 | 0.00 | 41 | 1016.8 |
| 20260901030314 | 89 | 326 | 0.9 | 1.7 | 0.00 | 0.00 | 0.00 | 40 | 1016.7 |
| 20260901025813 | 89 | 285 | 0.9 | 1.7 | 0.00 | 0.00 | 0.00 | 40 | 1016.5 |
| 20260901025308 | 89 | 30 | 0.0 | 1.7 | 0.00 | 0.00 | 0.00 | 40 | 1016.5 |
| 20260901024758 | 89 | 187 | 0.0 | 1.7 | 0.00 | 0.00 | 0.00 | 40 | 1016.6 |
| 20260901024257 | 89 | 225 | 0.9 | 1.7 | 0.00 | 0.00 | 0.00 | 39 | 1016.5 |
| 20260901023755 | 89 | 286 | 0.0 | 1.7 | 0.00 | 0.00 | 0.00 | 39 | 1016.4 |
| 20260901023250 | 90 | 274 | 1.7 | 2.6 | 0.00 | 0.00 | 0.00 | 39 | 1016.5 |
| 20260901022746 | 90 | 145 | 0.0 | 0.9 | 0.00 | 0.00 | 0.00 | 39 | 1016.2 |
| 20260901022242 | 90 | 183 | 0.0 | 0.9 | 0.00 | 0.00 | 0.00 | 39 | 1016.1 |
| 20260901021736 | 90 | 84 | 0.0 | 0.9 | 0.00 | 0.00 | 0.00 | 38 | 1015.7 |
| 20260901021232 | 91 | 131 | 0.0 | 1.7 | 0.00 | 0.00 | 0.00 | 38 | 1015.8 |
| 20260901020727 | 91 | 136 | 0.0 | 1.7 | 0.00 | 0.00 | 0.00 | 37 | 1015.8 |
| 20260901020222 | 91 | 80 | 0.0 | 0.9 | 0.00 | 0.00 | 0.00 | 37 | 1015.7 |
| 20260901015717 | 92 | 43 | 0.0 | 1.7 | 0.00 | 0.00 | 0.00 | 37 | 1015.8 |
| 20260901015212 | 92 | 54 | 0.0 | 1.7 | 0.00 | 0.00 | 0.00 | 36 | 1015.6 |
| 20260901014706 | 92 | 19 | 0.0 | 0.9 | 0.00 | 0.00 | 0.00 | 36 | 1015.5 |
| 20260901014203 | 92 | 306 | 0.0 | 2.6 | 0.00 | 0.00 | 0.00 | 35 | 1015.6 |
| 20260901013653 | 93 | 112 | 0.0 | 2.6 | 0.00 | 0.00 | 0.00 | 35 | 1015.6 |
| 20260901013148 | 93 | 318 | 1.7 | 2.6 | 0.00 | 0.00 | 0.00 | 35 | 1015.5 |
| 20260901012643 | 93 | 125 | 0.0 | 2.6 | 0.00 | 0.00 | 0.00 | 34 | 1015.5 |
| 20260901012138 | 94 | 14 | 0.0 | 2.6 | 0.00 | 0.00 | 0.00 | 34 | 1015.3 |
| 20260901011634 | 94 | 89 | 3.5 | 3.5 | 0.00 | 0.00 | 0.00 | 34 | 1015.3 |
| 20260901011133 | 94 | 210 | 1.7 | 5.2 | 0.00 | 0.00 | 0.00 | 34 | 1015.2 |
| 20260901010628 | 94 | 33 | 0.9 | 1.7 | 0.00 | 0.00 | 0.00 | 34 | 1015.3 |
| 20260901010127 | 95 | 40 | 0.9 | 2.6 | 0.00 | 0.00 | 0.00 | 33 | 1015.1 |
| 20260901005626 | 95 | 49 | 0.9 | 3.5 | 0.00 | 0.00 | 0.00 | 34 | 1015.1 |
| 20260901005121 | 95 | 205 | 0.9 | 5.2 | 0.00 | 0.00 | 0.00 | 33 | 1015.1 |
| 20260901004620 | 95 | 36 | 0.0 | 1.7 | 0.00 | 0.00 | 0.00 | 33 | 1015.1 |
| 20260901004116 | 96 | 216 | 0.9 | 0.9 | 0.00 | 0.00 | 0.00 | 33 | 1015.1 |
| 20260901003611 | 96 | 71 | 0.9 | 1.7 | 0.00 | 0.00 | 0.00 | 33 | 1015.2 |
| 20260901003110 | 96 | 45 | 1.7 | 5.2 | 0.00 | 0.00 | 0.00 | 33 | 1015.2 |
| 20260901002609 | 96 | 229 | 2.6 | 3.5 | 0.00 | 0.00 | 0.00 | 33 | 1014.9 |
| 20260901002104 | 96 | 356 | 2.6 | 3.5 | 0.00 | 0.00 | 0.00 | 33 | 1015.0 |
| 20260901001559 | 97 | 287 | 0.0 | 6.1 | 0.00 | 0.00 | 0.00 | 33 | 1014.9 |
| 20260901001054 | 97 | 23 | 2.6 | 3.5 | 0.00 | 0.00 | 0.00 | 32 | 1015.0 |
| 20260901000549 | 97 | 20 | 0.0 | 1.7 | 0.00 | 0.00 | 0.00 | 32 | 1015.2 |
| 20260901000045 | 98 | 183 | 1.7 | 2.6 | 0.00 | 0.00 | 0.00 | 32 | 1015.2 |
| 20260831235538 | 98 | 296 | 3.5 | 5.2 | 0.00 | 0.00 | 0.00 | 32 | 1014.9 |
| 20260831235034 | 98 | 296 | 1.7 | 3.5 | 0.00 | 0.00 | 0.00 | 32 | 1015.1 |
| 20260831234528 | 98 | 33 | 0.9 | 6.1 | 0.00 | 0.00 | 0.00 | 31 | 1015.1 |
| 20260831234024 | 98 | 67 | 0.9 | 1.7 | 0.00 | 0.00 | 0.00 | 32 | 1015.2 |
| 20260831233519 | 98 | 13 | 0.9 | 2.6 | 0.00 | 0.00 | 0.00 | 32 | 1015.3 |
| 20260831233015 | 98 | 292 | 0.9 | 1.7 | 0.00 | 0.00 | 0.00 | 32 | 1015.2 |
| 20260831232510 | 99 | 70 | 0.9 | 2.6 | 0.00 | 0.00 | 0.00 | 32 | 1015.1 |
| 20260831232006 | 99 | 5 | 0.9 | 6.1 | 0.00 | 0.00 | 0.00 | 32 | 1015.2 |
| 20260831231502 | 99 | 260 | 0.9 | 6.1 | 0.00 | 0.00 | 0.00 | 32 | 1015.0 |
| 20260831230957 | 99 | 359 | 0.0 | 5.2 | 0.00 | 0.00 | 0.00 | 32 | 1015.2 |
| 20260831230452 | 99 | 183 | 1.7 | 6.1 | 0.00 | 0.00 | 0.00 | 32 | 1015.3 |
| 20260831225947 | 99 | 278 | 3.5 | 7.0 | 0.00 | 0.00 | 0.00 | 31 | 1015.0 |
| 20260831225443 | 99 | 39 | 0.9 | 3.5 | 0.00 | 0.00 | 0.00 | 32 | 1015.0 |
| 20260831224938 | 100 | 35 | 3.5 | 5.2 | 0.00 | 0.00 | 0.00 | 31 | 1015.2 |
| 20260831224437 | 100 | 251 | 4.3 | 7.0 | 0.00 | 0.00 | 0.00 | 31 | 1015.1 |
| 20260831223932 | 100 | 56 | 2.6 | 5.2 | 0.00 | 0.00 | 0.00 | 31 | 1015.0 |
| 20260831223427 | 101 | 262 | 0.9 | 6.1 | 0.00 | 0.00 | 0.00 | 31 | 1014.9 |
| 20260831222924 | 102 | 237 | 2.6 | 6.1 | 0.00 | 0.00 | 0.00 | 30 | 1015.2 |
| 20260831222419 | 102 | 28 | 0.9 | 3.5 | 0.00 | 0.00 | 0.00 | 30 | 1015.0 |
| 20260831221914 | 101 | 215 | 1.7 | 2.6 | 0.00 | 0.00 | 0.00 | 30 | 1015.0 |
| 20260831221410 | 102 | 153 | 0.0 | 2.6 | 0.00 | 0.00 | 0.00 | 30 | 1014.9 |
| 20260831220905 | 101 | 129 | 2.6 | 5.2 | 0.00 | 0.00 | 0.00 | 31 | 1015.1 |
| 20260831220355 | 102 | 215 | 0.9 | 3.5 | 0.00 | 0.00 | 0.00 | 30 | 1014.9 |
| 20260831215850 | 103 | 217 | 1.7 | 7.8 | 0.00 | 0.00 | 0.00 | 31 | 1015.1 |
| 20260831215345 | 103 | 290 | 1.7 | 6.1 | 0.00 | 0.00 | 0.00 | 29 | 1015.0 |
| 20260831214842 | 103 | 271 | 3.5 | 6.1 | 0.00 | 0.00 | 0.00 | 29 | 1015.0 |
| 20260831214339 | 104 | 265 | 2.6 | 2.6 | 0.00 | 0.00 | 0.00 | 28 | 1015.0 |
| 20260831213833 | 103 | 276 | 1.7 | 2.6 | 0.00 | 0.00 | 0.00 | 30 | 1015.3 |
| 20260831213330 | 105 | 252 | 4.3 | 7.8 | 0.00 | 0.00 | 0.00 | 29 | 1015.4 |
| 20260831212825 | 104 | 244 | 1.7 | 5.2 | 0.00 | 0.00 | 0.00 | 29 | 1015.4 |
| 20260831212322 | 104 | 261 | 0.9 | 3.5 | 0.00 | 0.00 | 0.00 | 29 | 1015.5 |
| 20260831211820 | 103 | 285 | 0.9 | 2.6 | 0.00 | 0.00 | 0.00 | 30 | 1015.6 |
| 20260831211315 | 102 | 263 | 0.9 | 5.2 | 0.00 | 0.00 | 0.00 | 30 | 1015.4 |
| 20260831210810 | 103 | 166 | 4.3 | 7.8 | 0.00 | 0.00 | 0.00 | 30 | 1015.5 |
| 20260831210307 | 103 | 269 | 3.5 | 6.1 | 0.00 | 0.00 | 0.00 | 31 | 1015.7 |
| 20260831205806 | 102 | 295 | 3.5 | 6.1 | 0.00 | 0.00 | 0.00 | 30 | 1015.6 |
| 20260831205305 | 101 | 160 | 1.7 | 2.6 | 0.00 | 0.00 | 0.00 | 30 | 1015.9 |
| 20260831204755 | 100 | 222 | 0.0 | 2.6 | 0.00 | 0.00 | 0.00 | 32 | 1015.7 |
| 20260831204254 | 101 | 298 | 1.7 | 2.6 | 0.00 | 0.00 | 0.00 | 31 | 1015.9 |
| 20260831203754 | 102 | 322 | 2.6 | 5.2 | 0.00 | 0.00 | 0.00 | 30 | 1015.6 |
| 20260831203248 | 104 | 249 | 1.7 | 2.6 | 0.00 | 0.00 | 0.00 | 29 | 1015.8 |
| 20260831202747 | 103 | 86 | 2.6 | 9.6 | 0.00 | 0.00 | 0.00 | 30 | 1015.8 |
| 20260831202242 | 104 | 212 | 1.7 | 5.2 | 0.00 | 0.00 | 0.00 | 29 | 1015.8 |
| 20260831201737 | 103 | 30 | 1.7 | 3.5 | 0.00 | 0.00 | 0.00 | 30 | 1016.1 |
| 20260831201236 | 103 | 50 | 0.9 | 2.6 | 0.00 | 0.00 | 0.00 | 30 | 1016.2 |
| 20260831200732 | 103 | 41 | 2.6 | 6.1 | 0.00 | 0.00 | 0.00 | 30 | 1016.2 |
| 20260831200232 | 103 | 338 | 1.7 | 2.6 | 0.00 | 0.00 | 0.00 | 30 | 1016.3 |
| 20260831195727 | 103 | 253 | 3.5 | 5.2 | 0.00 | 0.00 | 0.00 | 30 | 1016.1 |
| 20260831195223 | 103 | 41 | 1.7 | 5.2 | 0.00 | 0.00 | 0.00 | 30 | 1016.5 |
| 20260831194718 | 104 | 110 | 1.7 | 7.8 | 0.00 | 0.00 | 0.00 | 28 | 1016.6 |
| 20260831194214 | 103 | 331 | 0.9 | 2.6 | 0.00 | 0.00 | 0.00 | 29 | 1016.5 |
| 20260831193707 | 102 | 275 | 0.9 | 6.1 | 0.00 | 0.00 | 0.00 | 30 | 1016.4 |
| 20260831193202 | 103 | 239 | 4.3 | 7.0 | 0.00 | 0.00 | 0.00 | 29 | 1016.4 |
| 20260831192657 | 102 | 249 | 0.9 | 2.6 | 0.00 | 0.00 | 0.00 | 30 | 1016.5 |
| 20260831192153 | 103 | 183 | 4.3 | 5.2 | 0.00 | 0.00 | 0.00 | 31 | 1016.6 |
| 20260831191648 | 102 | 291 | 2.6 | 3.5 | 0.00 | 0.00 | 0.00 | 31 | 1016.6 |
| 20260831191144 | 101 | 267 | 3.5 | 5.2 | 0.00 | 0.00 | 0.00 | 32 | 1016.6 |
| 20260831190639 | 100 | 51 | 0.9 | 6.1 | 0.00 | 0.00 | 0.00 | 32 | 1016.7 |
| 20260831190138 | 101 | 189 | 1.7 | 3.5 | 0.00 | 0.00 | 0.00 | 33 | 1016.9 |
| 20260831185634 | 103 | 235 | 2.6 | 3.5 | 0.00 | 0.00 | 0.00 | 31 | 1016.9 |
| 20260831185130 | 102 | 135 | 0.9 | 2.6 | 0.00 | 0.00 | 0.00 | 31 | 1016.7 |
| 20260831184629 | 102 | 246 | 2.6 | 3.5 | 0.00 | 0.00 | 0.00 | 31 | 1017.0 |
| 20260831184125 | 100 | 205 | 1.7 | 2.6 | 0.00 | 0.00 | 0.00 | 32 | 1017.0 |
| 20260831183619 | 102 | 337 | 1.7 | 3.5 | 0.00 | 0.00 | 0.00 | 33 | 1017.1 |
| 20260831183118 | 102 | 168 | 1.7 | 5.2 | 0.00 | 0.00 | 0.00 | 32 | 1017.2 |
| 20260831182617 | 101 | 243 | 0.0 | 1.7 | 0.00 | 0.00 | 0.00 | 32 | 1017.2 |
| 20260831182113 | 100 | 256 | 2.6 | 5.2 | 0.00 | 0.00 | 0.00 | 32 | 1017.3 |
| 20260831181608 | 101 | 252 | 0.9 | 6.1 | 0.00 | 0.00 | 0.00 | 33 | 1017.1 |
| 20260831181107 | 102 | 51 | 1.7 | 8.7 | 0.00 | 0.00 | 0.00 | 33 | 1017.3 |
| 20260831180602 | 101 | 206 | 2.6 | 6.1 | 0.00 | 0.00 | 0.00 | 32 | 1017.2 |
| 20260831180058 | 101 | 28 | 0.9 | 8.7 | 0.00 | 0.00 | 0.00 | 34 | 1017.2 |
| 20260831175547 | 100 | 235 | 2.6 | 3.5 | 0.00 | 0.00 | 0.00 | 35 | 1017.4 |
| 20260831175044 | 101 | 308 | 0.9 | 5.2 | 0.00 | 0.00 | 0.00 | 35 | 1017.5 |
| 20260831174538 | 101 | 265 | 3.5 | 7.0 | 0.00 | 0.00 | 0.00 | 35 | 1017.7 |
| 20260831174032 | 100 | 215 | 1.7 | 6.1 | 0.00 | 0.00 | 0.00 | 36 | 1017.5 |
| 20260831173531 | 100 | 252 | 2.6 | 6.1 | 0.00 | 0.00 | 0.00 | 36 | 1017.6 |
| 20260831173028 | 98 | 211 | 2.6 | 11.3 | 0.00 | 0.00 | 0.00 | 38 | 1017.8 |
| 20260831172527 | 100 | 244 | 3.5 | 7.0 | 0.00 | 0.00 | 0.00 | 36 | 1017.9 |
| 20260831172022 | 98 | 77 | 0.9 | 6.1 | 0.00 | 0.00 | 0.00 | 39 | 1017.9 |
| 20260831171518 | 98 | 243 | 5.2 | 7.0 | 0.00 | 0.00 | 0.00 | 38 | 1017.9 |
| 20260831171015 | 98 | 262 | 3.5 | 6.1 | 0.00 | 0.00 | 0.00 | 39 | 1017.9 |
| 20260831170511 | 99 | 270 | 3.5 | 5.2 | 0.00 | 0.00 | 0.00 | 38 | 1018.1 |
| 20260831170009 | 99 | 119 | 1.7 | 5.2 | 0.00 | 0.00 | 0.00 | 38 | 1018.0 |
| 20260831165509 | 99 | 97 | 1.7 | 5.2 | 0.00 | 0.00 | 0.00 | 39 | 1018.1 |
| 20260831165006 | 98 | 208 | 2.6 | 5.2 | 0.00 | 0.00 | 0.00 | 40 | 1018.1 |
| 20260831164501 | 98 | 32 | 0.0 | 1.7 | 0.00 | 0.00 | 0.00 | 41 | 1018.1 |
| 20260831163956 | 98 | 268 | 2.6 | 6.1 | 0.00 | 0.00 | 0.00 | 40 | 1018.0 |
| 20260831163451 | 98 | 244 | 1.7 | 5.2 | 0.00 | 0.00 | 0.00 | 41 | 1018.1 |
| 20260831162950 | 97 | 265 | 0.9 | 7.0 | 0.00 | 0.00 | 0.00 | 42 | 1018.2 |
| 20260831162446 | 97 | 343 | 0.9 | 2.6 | 0.00 | 0.00 | 0.00 | 42 | 1018.1 |
| 20260831161943 | 96 | 269 | 2.6 | 3.5 | 0.00 | 0.00 | 0.00 | 42 | 1018.1 |
| 20260831161441 | 95 | 239 | 2.6 | 5.2 | 0.00 | 0.00 | 0.00 | 43 | 1018.1 |
| 20260831160936 | 95 | 284 | 5.2 | 9.6 | 0.00 | 0.00 | 0.00 | 43 | 1018.2 |
| 20260831160436 | 96 | 270 | 3.5 | 6.1 | 0.00 | 0.00 | 0.00 | 42 | 1018.1 |
| 20260831155930 | 95 | 131 | 3.5 | 3.5 | 0.00 | 0.00 | 0.00 | 43 | 1018.2 |
| 20260831155425 | 95 | 230 | 1.7 | 6.1 | 0.00 | 0.00 | 0.00 | 44 | 1018.1 |
| 20260831154920 | 95 | 310 | 3.5 | 5.2 | 0.00 | 0.00 | 0.00 | 43 | 1018.1 |
| 20260831154417 | 95 | 261 | 2.6 | 5.2 | 0.00 | 0.00 | 0.00 | 44 | 1018.0 |
| 20260831153915 | 95 | 227 | 1.7 | 2.6 | 0.00 | 0.00 | 0.00 | 43 | 1018.2 |
| 20260831153411 | 95 | 262 | 0.9 | 1.7 | 0.00 | 0.00 | 0.00 | 44 | 1018.3 |
| 20260831152907 | 94 | 246 | 3.5 | 5.2 | 0.00 | 0.00 | 0.00 | 45 | 1018.0 |
| 20260831152402 | 93 | 175 | 2.6 | 3.5 | 0.00 | 0.00 | 0.00 | 46 | 1018.1 |
| 20260831151857 | 93 | 263 | 1.7 | 2.6 | 0.00 | 0.00 | 0.00 | 46 | 1018.1 |
| 20260831151356 | 93 | 17 | 0.9 | 1.7 | 0.00 | 0.00 | 0.00 | 46 | 1018.1 |
| 20260831150851 | 92 | 118 | 1.7 | 2.6 | 0.00 | 0.00 | 0.00 | 47 | 1018.2 |
| 20260831150347 | 92 | 251 | 0.9 | 5.2 | 0.00 | 0.00 | 0.00 | 47 | 1018.4 |
| 20260831145846 | 92 | 225 | 1.7 | 1.7 | 0.00 | 0.00 | 0.00 | 47 | 1018.3 |
| 20260831145343 | 91 | 297 | 2.6 | 5.2 | 0.00 | 0.00 | 0.00 | 48 | 1018.4 |
| 20260831144838 | 91 | 249 | 2.6 | 5.2 | 0.00 | 0.00 | 0.00 | 48 | 1018.3 |
| 20260831144334 | 92 | 284 | 0.9 | 1.7 | 0.00 | 0.00 | 0.00 | 48 | 1018.4 |
| 20260831143828 | 91 | 275 | 0.9 | 5.2 | 0.00 | 0.00 | 0.00 | 49 | 1018.2 |
| 20260831143323 | 90 | 270 | 1.7 | 2.6 | 0.00 | 0.00 | 0.00 | 50 | 1018.3 |
| 20260831142819 | 89 | 274 | 0.9 | 3.5 | 0.00 | 0.00 | 0.00 | 50 | 1018.4 |
| 20260831142314 | 89 | 191 | 0.9 | 1.7 | 0.00 | 0.00 | 0.00 | 51 | 1018.3 |
| 20260831141809 | 89 | 248 | 1.7 | 2.6 | 0.00 | 0.00 | 0.00 | 50 | 1018.3 |
| 20260831141303 | 88 | 176 | 0.9 | 3.5 | 0.00 | 0.00 | 0.00 | 51 | 1018.3 |
| 20260831140758 | 88 | 91 | 2.6 | 3.5 | 0.00 | 0.00 | 0.00 | 52 | 1018.5 |
| 20260831140253 | 88 | 267 | 0.9 | 2.6 | 0.00 | 0.00 | 0.00 | 52 | 1018.2 |
| 20260831135750 | 88 | 28 | 0.9 | 2.6 | 0.00 | 0.00 | 0.00 | 52 | 1018.4 |
| 20260831135246 | 87 | 30 | 0.9 | 0.9 | 0.00 | 0.00 | 0.00 | 53 | 1018.4 |
| 20260831134742 | 86 | 246 | 0.9 | 2.6 | 0.00 | 0.00 | 0.00 | 52 | 1018.4 |
| 20260831134238 | 85 | 263 | 1.7 | 3.5 | 0.00 | 0.00 | 0.00 | 53 | 1018.4 |
| 20260831133736 | 85 | 345 | 0.0 | 1.7 | 0.00 | 0.00 | 0.00 | 53 | 1018.3 |
| 20260831133231 | 85 | 62 | 0.9 | 1.7 | 0.00 | 0.00 | 0.00 | 54 | 1018.3 |
| 20260831132726 | 85 | 20 | 0.9 | 0.9 | 0.00 | 0.00 | 0.00 | 53 | 1018.3 |
| 20260831132226 | 84 | 270 | 0.0 | 0.9 | 0.00 | 0.00 | 0.00 | 55 | 1018.1 |
| 20260831131721 | 83 | 44 | 0.0 | 0.9 | 0.00 | 0.00 | 0.00 | 55 | 1018.2 |
| 20260831131218 | 82 | 44 | 0.0 | 0.9 | 0.00 | 0.00 | 0.00 | 56 | 1018.1 |
| 20260831130712 | 81 | 139 | 0.9 | 0.9 | 0.00 | 0.00 | 0.00 | 57 | 1017.9 |
| 20260831130208 | 81 | 182 | 0.0 | 0.9 | 0.00 | 0.00 | 0.00 | 58 | 1017.9 |
| 20260831125706 | 80 | 182 | 0.0 | 0.9 | 0.00 | 0.00 | 0.00 | 58 | 1017.9 |
| 20260831125203 | 80 | 183 | 0.0 | 1.7 | 0.00 | 0.00 | 0.00 | 58 | 1017.9 |
| 20260831124657 | 80 | 216 | 0.9 | 2.6 | 0.00 | 0.00 | 0.00 | 58 | 1017.8 |
| 20260831124153 | 80 | 341 | 0.9 | 0.9 | 0.00 | 0.00 | 0.00 | 58 | 1017.7 |
| 20260831123653 | 80 | 330 | 0.0 | 0.9 | 0.00 | 0.00 | 0.00 | 58 | 1017.7 |
| 20260831123151 | 80 | 272 | 0.0 | 0.9 | 0.00 | 0.00 | 0.00 | 58 | 1017.6 |
| 20260831122646 | 80 | 261 | 0.0 | 0.9 | 0.00 | 0.00 | 0.00 | 57 | 1017.4 |
| 20260831122143 | 80 | 240 | 0.0 | 0.9 | 0.00 | 0.00 | 0.00 | 57 | 1017.4 |
| 20260831121641 | 80 | 274 | 0.0 | 1.7 | 0.00 | 0.00 | 0.00 | 57 | 1017.4 |
| 20260831121138 | 80 | 121 | 0.0 | 0.9 | 0.00 | 0.00 | 0.00 | 57 | 1017.3 |
| 20260831120633 | 80 | 153 | 0.9 | 2.6 | 0.00 | 0.00 | 0.00 | 57 | 1017.2 |
| 20260831120128 | 80 | 159 | 0.0 | 0.9 | 0.00 | 0.00 | 0.00 | 57 | 1017.1 |
| 20260831115624 | 80 | 42 | 0.0 | 0.9 | 0.00 | 0.00 | 0.00 | 56 | 1017.2 |
| 20260831115119 | 80 | 326 | 0.0 | 1.7 | 0.00 | 0.00 | 0.00 | 56 | 1016.9 |
| 20260831114618 | 80 | 227 | 0.9 | 0.9 | 0.00 | 0.00 | 0.00 | 56 | 1017.0 |
| 20260831114113 | 80 | 213 | 0.9 | 1.7 | 0.00 | 0.00 | 0.00 | 56 | 1016.8 |
| 20260831113612 | 80 | 284 | 0.9 | 1.7 | 0.00 | 0.00 | 0.00 | 56 | 1016.7 |
| 20260831113108 | 80 | 283 | 0.0 | 0.9 | 0.00 | 0.00 | 0.00 | 55 | 1016.7 |
| 20260831112607 | 80 | 278 | 0.9 | 0.9 | 0.00 | 0.00 | 0.00 | 55 | 1016.9 |
| 20260831112102 | 81 | 189 | 0.0 | 1.7 | 0.00 | 0.00 | 0.00 | 55 | 1016.9 |
| 20260831111558 | 81 | 233 | 0.0 | 1.7 | 0.00 | 0.00 | 0.00 | 54 | 1016.5 |
| 20260831111053 | 81 | 287 | 2.6 | 3.5 | 0.00 | 0.00 | 0.00 | 54 | 1016.5 |
| 20260831110548 | 81 | 231 | 0.0 | 1.7 | 0.00 | 0.00 | 0.00 | 54 | 1016.4 |
| 20260831110043 | 81 | 302 | 0.0 | 0.9 | 0.00 | 0.00 | 0.00 | 54 | 1016.3 |
| 20260831105542 | 81 | 28 | 0.9 | 1.7 | 0.00 | 0.00 | 0.00 | 54 | 1016.3 |
| 20260831105038 | 81 | 177 | 0.9 | 2.6 | 0.00 | 0.00 | 0.00 | 53 | 1016.3 |
| 20260831104534 | 81 | 310 | 0.9 | 0.9 | 0.00 | 0.00 | 0.00 | 54 | 1016.3 |
| 20260831104030 | 82 | 258 | 1.7 | 2.6 | 0.00 | 0.00 | 0.00 | 53 | 1016.2 |
| 20260831103525 | 81 | 87 | 0.0 | 0.9 | 0.00 | 0.00 | 0.00 | 53 | 1016.3 |
| 20260831103021 | 82 | 267 | 1.7 | 2.6 | 0.00 | 0.00 | 0.00 | 53 | 1016.2 |
| 20260831102520 | 82 | 306 | 0.0 | 1.7 | 0.00 | 0.00 | 0.00 | 53 | 1016.2 |
| 20260831102016 | 82 | 149 | 0.9 | 1.7 | 0.00 | 0.00 | 0.00 | 53 | 1016.3 |
| 20260831101511 | 82 | 8 | 0.9 | 1.7 | 0.00 | 0.00 | 0.00 | 52 | 1016.3 |
| 20260831101007 | 82 | 211 | 1.7 | 5.2 | 0.00 | 0.00 | 0.00 | 52 | 1016.2 |
| 20260831100503 | 82 | 264 | 1.7 | 2.6 | 0.00 | 0.00 | 0.00 | 52 | 1016.2 |
| 20260831095958 | 83 | 46 | 0.0 | 2.6 | 0.00 | 0.00 | 0.00 | 51 | 1016.3 |
| 20260831095457 | 83 | 210 | 0.9 | 0.9 | 0.00 | 0.00 | 0.00 | 51 | 1015.9 |
| 20260831094952 | 83 | 264 | 0.9 | 1.7 | 0.00 | 0.00 | 0.00 | 51 | 1016.2 |
| 20260831094448 | 83 | 240 | 1.7 | 2.6 | 0.00 | 0.00 | 0.00 | 50 | 1016.1 |
| 20260831093944 | 83 | 220 | 0.0 | 2.6 | 0.00 | 0.00 | 0.00 | 50 | 1016.1 |
| 20260831093439 | 84 | 307 | 1.7 | 2.6 | 0.00 | 0.00 | 0.00 | 50 | 1016.1 |
| 20260831092935 | 84 | 239 | 1.7 | 2.6 | 0.00 | 0.00 | 0.00 | 50 | 1016.1 |
| 20260831092431 | 84 | 299 | 1.7 | 3.5 | 0.00 | 0.00 | 0.00 | 49 | 1015.9 |
| 20260831091925 | 84 | 358 | 0.0 | 5.2 | 0.00 | 0.00 | 0.00 | 49 | 1015.7 |
| 20260831091420 | 84 | 286 | 0.9 | 7.8 | 0.00 | 0.00 | 0.00 | 49 | 1015.7 |
| 20260831090910 | 84 | 320 | 0.9 | 2.6 | 0.00 | 0.00 | 0.00 | 49 | 1015.5 |
| 20260831090406 | 84 | 236 | 0.0 | 1.7 | 0.00 | 0.00 | 0.00 | 49 | 1015.6 |
| 20260831085903 | 84 | 71 | 0.9 | 1.7 | 0.00 | 0.00 | 0.00 | 49 | 1015.8 |
| 20260831085402 | 85 | 308 | 0.0 | 3.5 | 0.00 | 0.00 | 0.00 | 49 | 1015.7 |
| 20260831084856 | 85 | 264 | 1.7 | 5.2 | 0.00 | 0.00 | 0.00 | 49 | 1015.5 |
| 20260831084353 | 85 | 252 | 1.7 | 3.5 | 0.00 | 0.00 | 0.00 | 48 | 1015.5 |
| 20260831083849 | 85 | 230 | 1.7 | 3.5 | 0.00 | 0.00 | 0.00 | 48 | 1015.6 |
| 20260831083344 | 85 | 271 | 1.7 | 5.2 | 0.00 | 0.00 | 0.00 | 48 | 1015.4 |
| 20260831082842 | 85 | 277 | 1.7 | 5.2 | 0.00 | 0.00 | 0.00 | 48 | 1015.8 |
| 20260831082332 | 86 | 177 | 0.9 | 5.2 | 0.00 | 0.00 | 0.00 | 48 | 1015.5 |
| 20260831081827 | 86 | 252 | 3.5 | 6.1 | 0.00 | 0.00 | 0.00 | 47 | 1015.7 |
| 20260831081322 | 86 | 238 | 4.3 | 5.2 | 0.00 | 0.00 | 0.00 | 47 | 1015.5 |
| 20260831080818 | 86 | 314 | 1.7 | 8.7 | 0.00 | 0.00 | 0.00 | 47 | 1015.6 |
| 20260831080313 | 86 | 207 | 0.9 | 2.6 | 0.00 | 0.00 | 0.00 | 47 | 1015.7 |
| 20260831075809 | 86 | 121 | 2.6 | 3.5 | 0.00 | 0.00 | 0.00 | 47 | 1015.7 |
| 20260831075306 | 85 | 238 | 1.7 | 3.5 | 0.00 | 0.00 | 0.00 | 47 | 1015.5 |
| 20260831074803 | 86 | 118 | 0.0 | 2.6 | 0.00 | 0.00 | 0.00 | 46 | 1015.6 |
| 20260831074302 | 86 | 37 | 0.9 | 3.5 | 0.00 | 0.00 | 0.00 | 46 | 1015.7 |
| 20260831073759 | 85 | 275 | 0.0 | 1.7 | 0.00 | 0.00 | 0.00 | 46 | 1015.5 |
| 20260831073257 | 85 | 211 | 0.9 | 1.7 | 0.00 | 0.00 | 0.00 | 46 | 1015.5 |
| 20260831072752 | 86 | 266 | 1.7 | 2.6 | 0.00 | 0.00 | 0.00 | 46 | 1015.5 |
| 20260831072249 | 86 | 258 | 0.0 | 3.5 | 0.00 | 0.00 | 0.00 | 46 | 1015.5 |
| 20260831071744 | 86 | 219 | 0.9 | 1.7 | 0.00 | 0.00 | 0.00 | 46 | 1015.5 |
| 20260831071238 | 86 | 231 | 2.6 | 5.2 | 0.00 | 0.00 | 0.00 | 45 | 1015.4 |
| 20260831070733 | 86 | 94 | 0.0 | 1.7 | 0.00 | 0.00 | 0.00 | 45 | 1015.5 |
| 20260831070227 | 87 | 227 | 0.9 | 1.7 | 0.00 | 0.00 | 0.00 | 44 | 1015.5 |
| 20260831065726 | 87 | 192 | 0.0 | 2.6 | 0.00 | 0.00 | 0.00 | 44 | 1015.5 |
| 20260831065224 | 87 | 55 | 0.9 | 2.6 | 0.00 | 0.00 | 0.00 | 44 | 1015.4 |
| 20260831064719 | 87 | 329 | 0.9 | 3.5 | 0.00 | 0.00 | 0.00 | 44 | 1015.5 |
| 20260831064215 | 87 | 54 | 0.9 | 1.7 | 0.00 | 0.00 | 0.00 | 44 | 1015.4 |
| 20260831063711 | 87 | 298 | 0.0 | 1.7 | 0.00 | 0.00 | 0.00 | 44 | 1015.3 |
| 20260831063206 | 87 | 194 | 0.0 | 5.2 | 0.00 | 0.00 | 0.00 | 44 | 1015.3 |
| 20260831062705 | 87 | 74 | 0.9 | 1.7 | 0.00 | 0.00 | 0.00 | 44 | 1015.3 |
| 20260831062205 | 88 | 254 | 1.7 | 3.5 | 0.00 | 0.00 | 0.00 | 44 | 1015.4 |
| 20260831061703 | 88 | 150 | 0.9 | 1.7 | 0.00 | 0.00 | 0.00 | 44 | 1015.3 |
| 20260831061159 | 88 | 273 | 0.0 | 3.5 | 0.00 | 0.00 | 0.00 | 44 | 1015.5 |
| 20260831060655 | 88 | 155 | 0.9 | 2.6 | 0.00 | 0.00 | 0.00 | 44 | 1015.6 |
| 20260831060154 | 88 | 318 | 0.0 | 3.5 | 0.00 | 0.00 | 0.00 | 44 | 1015.6 |
| 20260831055653 | 88 | 262 | 1.7 | 3.5 | 0.00 | 0.00 | 0.00 | 44 | 1015.3 |
| 20260831055149 | 88 | 83 | 0.9 | 3.5 | 0.00 | 0.00 | 0.00 | 44 | 1015.3 |
| 20260831054644 | 88 | 231 | 2.6 | 6.1 | 0.00 | 0.00 | 0.00 | 44 | 1015.3 |
| 20260831054143 | 88 | 267 | 0.9 | 1.7 | 0.00 | 0.00 | 0.00 | 43 | 1015.2 |
| 20260831053639 | 88 | 276 | 1.7 | 2.6 | 0.00 | 0.00 | 0.00 | 43 | 1015.2 |